Regional Weather Roundup
Issued by NWS

Home | Current Version | Previous Version | Text Only | Print | Product List | Glossary Off
Versions: 1 2 3 4 5 6 7 8 9 10 11 12 13 14 15 16 17 18 19 20 21 22 23 24 25 26 27 28 29 30 31 32 33 34 35 36 37 38 39 40 41 42 43 44 45 46 47 48 49 50

000
ASUS43 KMKX 272100
RWRWI

WISCONSIN REGIONAL WEATHER ROUNDUP
NATIONAL WEATHER SERVICE MILWAUKEE/SULLIVAN WI
400 PM CDT MON JUL 27 2015

NOTE: "FAIR" INDICATES FEW OR NO CLOUDS BELOW 12,000 FEET WITH NO
SIGNIFICANT WEATHER AND/OR OBSTRUCTIONS TO VISIBILITY.

WIZ001-002-006>008-014>016-023>028-272200-
NORTHWEST WISCONSIN

CITY           SKY/WX    TMP DP  RH WIND       PRES   REMARKS
SUPERIOR ARPT  MOSUNNY   84  70  63 NE9       29.94S HX  88
ASHLAND        SUNNY     89  56  32 S9        29.96F HX  87
HAYWARD        SUNNY     86  57  37 S8        29.99F HX  85
SIREN          MOSUNNY   86  64  47 SE10      29.96F HX  87
CUMBERLAND     MOSUNNY   81  68  65 SE9       29.98F HX  83
RICE LAKE      MOSUNNY   82  67  60 SE10      29.99F HX  84
CHETEK         MOSUNNY   83  68  61 SE10      29.97F HX  86
LADYSMITH      SUNNY     85  61  45 S9        30.02F HX  85
EAU CLAIRE     NOT AVBL
MENOMONIE      PTSUNNY   85  67  54 SE13      29.97F HX  88
NEW RICHMOND   CLOUDY    83  68  59 SE9       29.96F HX  86
OSCEOLA        CLOUDY    83  69  63 S13       29.98S HX  87
$$

WIZ003>005-009-010-017-018-272200-
NORTH CENTRAL WISCONSIN

CITY           SKY/WX    TMP DP  RH WIND       PRES   REMARKS
MANITOWISH WTR SUNNY     85  56  36 S10       30.03F HX  84
ARBOR VITAE    SUNNY     85  54  34 S8G16     30.04F HX  84
WOODRUFF       SUNNY     85  54  34 S8G16     30.04F HX  84
RHINELANDER    SUNNY     87  56  34 S10G20    30.05F HX  85
EAGLE RIVER    SUNNY     87  49  26 S8        30.05S HX  84
LAND O LAKES   SUNNY     89  47  23 S6        30.05F HX  86
PHILLIPS       MOSUNNY   86  57  37 S12       30.01F HX  85
TOMAHAWK       SUNNY     86  57  37 SE7       30.04F HX  84
MEDFORD        SUNNY     82  63  52 SE9       30.04F HX  83
MERRILL        NOT AVBL
$$

WIZ029-030-035-036-043>047-272200-
CENTRAL WISCONSIN

CITY           SKY/WX    TMP DP  RH WIND       PRES   REMARKS
WAUSAU         MOSUNNY   87  61  41 SE12      30.01F HX  87
MOSINEE        SUNNY     82  63  51 S5        30.04S HX  83
MARSHFIELD     MOSUNNY   85  61  44 S10       30.02F HX  85
STEVENS POINT  PTSUNNY   83  62  47 SE9       30.03F HX  84
WAUPACA        PTSUNNY   89  62  40 SE8       30.02F HX  89
WAUTOMA        NOT AVBL
WISC RAPIDS    PTSUNNY   88  60  38 SE9       30.02F HX  87
CAMP DOUGLAS   NOT AVBL
$$

WIZ011>013-019>022-031-037>040-048>050-272200-
NORTHEAST WISCONSIN

CITY           SKY/WX    TMP DP  RH WIND       PRES   REMARKS
ANTIGO         SUNNY     84  62  48 S7        30.06F HX  84
SHAWANO        MOSUNNY   88  59  37 S7        30.03F HX  88
OCONTO         SUNNY     87  63  43 S8        30.02F HX  88
STURGEON BAY   SUNNY    N/A N/A N/A MISG        N/A
GREEN BAY      MOSUNNY   85  63  47 S7        30.02F HX  86
MANITOWOC      NOT AVBL
APPLETON       MOSUNNY   84  57  39 SE8       30.03F HX  83
CLINTONVILLE   PTSUNNY   84  57  39 S7        30.03F HX  83
OSHKOSH        PTSUNNY   86  62  44 SE12      30.02F HX  86
$$

WIZ032>034-041-042-053>061-272200-
SOUTHWEST WISCONSIN

CITY           SKY/WX    TMP DP  RH WIND       PRES   REMARKS
LA CROSSE      MOSUNNY   86  68  54 SE8       29.95F HX  89
SPARTA         PTSUNNY   88  62  41 SE9       29.99F HX  88
VIROQUA        MOSUNNY   84  69  60 SE5       30.01F HX  87
BOSCOBEL       PTSUNNY   88  68  51 SE6       29.97F HX  91
PRAIRIE DU CHI PTSUNNY   86  65  49 S7        29.97S HX  88
PLATTEVILLE    CLOUDY    85  67  54 SE7       30.00F HX  87
$$

WIZ056-057-062-063-064-067-068-272200-
SOUTH CENTRAL WISCONSIN

CITY           SKY/WX    TMP DP  RH WIND       PRES   REMARKS
REEDSBURG      MOSUNNY   87  66  50 SE6       30.00F HX  89
BARABOO/DELLS  MOSUNNY   87  61  41 SE8       30.01F HX  87
LONE ROCK      NOT AVBL
MINERAL POINT  MOSUNNY   86  64  48 SE8       30.01F HX  87
MADISON        PTSUNNY   85  66  53 E8        30.00F HX  87
MIDDLETON      MOSUNNY   85  65  51 E8        30.01F HX  86
WATERTOWN      MOSUNNY   85  65  51 E7        30.02F HX  87
MONROE         MOSUNNY   86  66  51 SE6       30.00F HX  88
JANESVILLE     MOSUNNY   90  63  40 E12       30.00S HX  90
$$

WIZ051-052-058>065-066-070>072-272200-
SOUTHEAST WISCONSIN

CITY           SKY/WX    TMP DP  RH WIND       PRES   REMARKS
MILWAUKEE      PTSUNNY   83  61  47 E9        30.02F HX  83
WAUKESHA       SUNNY     82  57  42 E14       30.03F HX  82
MILWAUKEE/TIMM NOT AVBL
RACINE         SUNNY     82  62  50 E7        30.04F HX  83
BURLINGTON     MOSUNNY   84  59  42 E8        30.02F HX  84
KENOSHA        MOSUNNY   83  64  52 E9        30.03F HX  84
FOND DU LAC    MOSUNNY   86  63  45 SE8       30.02F HX  87
SHEBOYGAN      MOSUNNY   82  63  52 S6        30.04F HX  83
WEST BEND      MOSUNNY   82  59  44 CALM      30.04F HX  82
JUNEAU           N/A     84  62  47 SE9       30.04S HX  84
$$

LSZ147-162-272200-
LAKE SUPERIOR

STATION/POSITION TIME  TEMP    WIND        PRES    WAVE
                       AIR SEA DIR/SP/G            HT/PER
                 (UTC) (F)     (DEG/KT/KT) (MB)    (FT/S)
W MID LAKE BUOY  1950   69 65  240/  4/  6 1015.2S   0
DEVILS ISLAND    2000   76      80/ 10/ 10 1014.5F
PORT WING        2040   78      30/ 11/ 14 1014.2F
SAXON HARBOR     1900   78                 1014.9
$$

LMZ867-665-643>646-272200-
LAKE MICHIGAN

STATION/POSITION TIME  TEMP    WIND        PRES    WAVE
                       AIR SEA DIR/SP/G            HT/PER
                 (UTC) (F)     (DEG/KT/KT) (MB)    (FT/S)
CHAMBERS ISLAND  2000   87     200/  3/  8 1016.3F
N MID LAKE BUOY  1950   72 71  210/  6/  6 1016.8R   0
NORTHPORT PIER   2000   82     140/  4/  4 1016.9R
SISTER BAY       2044   90     300/  7/  8   N/A
ALGOMA LAKESHORE 2027          220/  7/  8   N/A
KEWAUNEE LAKESHO 2000   72     180/  5/  5 1017.1F
SHEBOYGAN LAKESH 2000   74     140/  4/  4 1017.7R
PORT WASHINGTON  2040   78      50/  3/  4 1017.6F
ATWATER BUOY     2000   74      40/  4/  4 1018.7F
MILWAUKEE LAKESH 2000   73      50/  7/  7   N/A
KENOSHA   LAKESH 2000   76      50/  4/  5 1016.6S
$$

TC  - TEMPERATURE IN CELSIUS
VSB - VISIBILITY IN STATUTE MILES
WCI - WIND CHILL INDEX
HX  - HEAT INDEX



USA.gov is the U.S. government's official web portal to all federal, state and local government web resources and services.